<?xml version='1.0' encoding='UTF-8'?>
<gpx xmlns="http://www.topografix.com/GPX/1/1" creator="www.balnam.be" version="1.1" xmlns:xsi="http://www.w3.org/2001/XMLSchema-instance" xsi:schemaLocation="http://www.topografix.com/GPX/1/1 http://www.topografix.com/GPX/1/1/gpx.xsd">
<trk>
<name>hbtbh10</name>
<cmt>v</cmt>
<desc>Bléharies Chemin n°10 Ruelle Bourlot</desc>
<link href="https://chemins.be/bleharies/chemin/10"/><trkseg>
<trkpt lat="50.518407" lon="3.407491"><time>2026-05-02T20:42:18Z</time></trkpt>
<trkpt lat="50.519398" lon="3.407027"><time>2026-05-02T20:52:18Z</time></trkpt>
<trkpt lat="50.520181" lon="3.406669"><time>2026-05-02T21:02:18Z</time></trkpt>
<trkpt lat="50.520841" lon="3.406772"><time>2026-05-02T21:12:18Z</time></trkpt>
</trkseg>
</trk>
<trk>
<name>hbtbh14</name>
<cmt>v</cmt>
<desc>Bléharies Chemin n°14 </desc>
<link href="https://chemins.be/bleharies/chemin/14"/><trkseg>
<trkpt lat="50.506462" lon="3.412920"><time>2026-05-02T20:42:18Z</time></trkpt>
<trkpt lat="50.505851" lon="3.410651"><time>2026-05-02T20:52:18Z</time></trkpt>
<trkpt lat="50.505888" lon="3.410371"><time>2026-05-02T21:02:18Z</time></trkpt>
<trkpt lat="50.506850" lon="3.409347"><time>2026-05-02T21:12:18Z</time></trkpt>
</trkseg>
</trk>
<trk>
<name>hbtbh16</name>
<cmt>v</cmt>
<desc>Bléharies Chemin n°16 </desc>
<link href="https://chemins.be/bleharies/chemin/16"/><trkseg>
<trkpt lat="50.509685" lon="3.419593"><time>2026-05-02T20:42:18Z</time></trkpt>
<trkpt lat="50.509213" lon="3.420048"><time>2026-05-02T20:52:18Z</time></trkpt>
<trkpt lat="50.508716" lon="3.422172"><time>2026-05-02T21:02:18Z</time></trkpt>
<trkpt lat="50.508460" lon="3.423267"><time>2026-05-02T21:12:18Z</time></trkpt>
<trkpt lat="50.507698" lon="3.425177"><time>2026-05-02T21:22:18Z</time></trkpt>
<trkpt lat="50.507521" lon="3.425506"><time>2026-05-02T21:32:18Z</time></trkpt>
<trkpt lat="50.506520" lon="3.427367"><time>2026-05-02T21:42:18Z</time></trkpt>
<trkpt lat="50.506462" lon="3.427567"><time>2026-05-02T21:52:18Z</time></trkpt>
<trkpt lat="50.506478" lon="3.427777"><time>2026-05-02T22:02:18Z</time></trkpt>
</trkseg>
</trk>
<trk>
<name>hbtbh17</name>
<cmt>v</cmt>
<desc>Bléharies Chemin n°17 </desc>
<link href="https://chemins.be/bleharies/chemin/17"/><trkseg>
<trkpt lat="50.499610" lon="3.404217"><time>2026-05-02T20:42:18Z</time></trkpt>
<trkpt lat="50.500293" lon="3.405997"><time>2026-05-02T20:52:18Z</time></trkpt>
<trkpt lat="50.500825" lon="3.407756"><time>2026-05-02T21:02:18Z</time></trkpt>
<trkpt lat="50.500962" lon="3.408217"><time>2026-05-02T21:12:18Z</time></trkpt>
</trkseg>
</trk>
<trk>
<name>hbtbh18</name>
<cmt>r</cmt>
<desc>Bléharies Chemin n°18 </desc>
<link href="https://chemins.be/bleharies/chemin/18"/><trkseg>
<trkpt lat="50.518394" lon="3.407637"><time>2026-05-02T20:42:18Z</time></trkpt>
<trkpt lat="50.517966" lon="3.406834"><time>2026-05-02T20:52:18Z</time></trkpt>
<trkpt lat="50.517502" lon="3.405963"><time>2026-05-02T21:02:18Z</time></trkpt>
<trkpt lat="50.517095" lon="3.405200"><time>2026-05-02T21:12:18Z</time></trkpt>
<trkpt lat="50.515987" lon="3.403944"><time>2026-05-02T21:22:18Z</time></trkpt>
<trkpt lat="50.515226" lon="3.403858"><time>2026-05-02T21:32:18Z</time></trkpt>
<trkpt lat="50.514412" lon="3.404893"><time>2026-05-02T21:42:18Z</time></trkpt>
</trkseg>
</trk>
<trk>
<name>hbtbh2</name>
<cmt>v</cmt>
<desc>Bléharies Chemin n°2 </desc>
<link href="https://chemins.be/bleharies/chemin/2"/><trkseg>
<trkpt lat="50.506763" lon="3.414352"><time>2026-05-02T20:42:18Z</time></trkpt>
<trkpt lat="50.506197" lon="3.414444"><time>2026-05-02T20:52:18Z</time></trkpt>
<trkpt lat="50.505917" lon="3.414490"><time>2026-05-02T21:02:18Z</time></trkpt>
<trkpt lat="50.505409" lon="3.413262"><time>2026-05-02T21:12:18Z</time></trkpt>
<trkpt lat="50.504429" lon="3.413074"><time>2026-05-02T21:22:18Z</time></trkpt>
<trkpt lat="50.503954" lon="3.413267"><time>2026-05-02T21:32:18Z</time></trkpt>
<trkpt lat="50.502024" lon="3.412263"><time>2026-05-02T21:42:18Z</time></trkpt>
<trkpt lat="50.501492" lon="3.412756"><time>2026-05-02T21:52:18Z</time></trkpt>
</trkseg>
</trk>
<trk>
<name>hbtbh20</name>
<cmt>q</cmt>
<desc>Bléharies Sentier n°20 </desc>
<link href="https://chemins.be/bleharies/sentier/20"/><trkseg>
<trkpt lat="50.512887" lon="3.414746"><time>2026-05-02T20:42:18Z</time></trkpt>
<trkpt lat="50.512592" lon="3.415068"><time>2026-05-02T20:52:18Z</time></trkpt>
<trkpt lat="50.512164" lon="3.414072"><time>2026-05-02T21:02:18Z</time></trkpt>
<trkpt lat="50.511831" lon="3.413780"><time>2026-05-02T21:12:18Z</time></trkpt>
<trkpt lat="50.511260" lon="3.412673"><time>2026-05-02T21:22:18Z</time></trkpt>
</trkseg>
</trk>
<trk>
<name>hbtbh21</name>
<cmt>q</cmt>
<desc>Bléharies Sentier n°21 </desc>
<link href="https://chemins.be/bleharies/sentier/21"/><trkseg>
<trkpt lat="50.513498" lon="3.414235"><time>2026-05-02T20:42:18Z</time></trkpt>
<trkpt lat="50.513212" lon="3.412879"><time>2026-05-02T20:52:18Z</time></trkpt>
</trkseg>
</trk>
<trk>
<name>hbtbh22</name>
<cmt>q</cmt>
<desc>Bléharies Sentier n°22 </desc>
<link href="https://chemins.be/bleharies/sentier/22"/><trkseg>
<trkpt lat="50.513053" lon="3.411678"><time>2026-05-02T20:42:18Z</time></trkpt>
<trkpt lat="50.513070" lon="3.412188"><time>2026-05-02T20:52:18Z</time></trkpt>
<trkpt lat="50.513203" lon="3.412849"><time>2026-05-02T21:02:18Z</time></trkpt>
<trkpt lat="50.514145" lon="3.413686"><time>2026-05-02T21:12:18Z</time></trkpt>
</trkseg></trk>
<trk>
<name>hbtbh22</name>
<cmt>v</cmt>
<desc>Bléharies Sentier n°22 </desc>
<link href="https://chemins.be/bleharies/sentier/22"/><trkseg>
<trkpt lat="50.514145" lon="3.413686"><time>2026-05-02T21:12:18Z</time></trkpt>
<trkpt lat="50.514380" lon="3.415124"><time>2026-05-02T21:22:18Z</time></trkpt>
<trkpt lat="50.514969" lon="3.416463"><time>2026-05-02T21:32:18Z</time></trkpt>
</trkseg>
</trk>
<trk>
<name>hbtbh23</name>
<cmt>q</cmt>
<desc>Bléharies Sentier n°23 Rue Lucien Delfosse</desc>
<link href="https://chemins.be/bleharies/sentier/23"/><trkseg>
<trkpt lat="50.513923" lon="3.413868"><time>2026-05-02T20:42:18Z</time></trkpt>
<trkpt lat="50.513875" lon="3.413983"><time>2026-05-02T20:52:18Z</time></trkpt>
<trkpt lat="50.513365" lon="3.414530"><time>2026-05-02T21:02:18Z</time></trkpt>
<trkpt lat="50.513277" lon="3.414537"><time>2026-05-02T21:12:18Z</time></trkpt>
</trkseg>
</trk>
<trk>
<name>hbtbh24</name>
<cmt>v</cmt>
<desc>Bléharies Sentier n°24 </desc>
<link href="https://chemins.be/bleharies/sentier/24"/><trkseg>
<trkpt lat="50.514644" lon="3.418784"><time>2026-05-02T20:42:18Z</time></trkpt>
<trkpt lat="50.514874" lon="3.418524"><time>2026-05-02T20:52:18Z</time></trkpt>
<trkpt lat="50.514894" lon="3.417759"><time>2026-05-02T21:02:18Z</time></trkpt>
<trkpt lat="50.514961" lon="3.416488"><time>2026-05-02T21:12:18Z</time></trkpt>
</trkseg></trk>
<trk>
<name>hbtbh24</name>
<cmt>b</cmt>
<desc>Bléharies Sentier n°24 </desc>
<link href="https://chemins.be/bleharies/sentier/24"/><trkseg>
<trkpt lat="50.514961" lon="3.416488"><time>2026-05-02T21:12:18Z</time></trkpt>
<trkpt lat="50.515174" lon="3.414744"><time>2026-05-02T21:22:18Z</time></trkpt>
<trkpt lat="50.515094" lon="3.413864"><time>2026-05-02T21:32:18Z</time></trkpt>
</trkseg></trk>
<trk>
<name>hbtbh24</name>
<cmt>v</cmt>
<desc>Bléharies Sentier n°24 </desc>
<link href="https://chemins.be/bleharies/sentier/24"/><trkseg>
<trkpt lat="50.515094" lon="3.413864"><time>2026-05-02T21:32:18Z</time></trkpt>
<trkpt lat="50.515094" lon="3.413874"><time>2026-05-02T21:42:18Z</time></trkpt>
<trkpt lat="50.514994" lon="3.413014"><time>2026-05-02T21:52:18Z</time></trkpt>
<trkpt lat="50.514944" lon="3.412574"><time>2026-05-02T22:02:18Z</time></trkpt>
<trkpt lat="50.514958" lon="3.412426"><time>2026-05-02T22:12:18Z</time></trkpt>
<trkpt lat="50.514824" lon="3.411465"><time>2026-05-02T22:22:18Z</time></trkpt>
<trkpt lat="50.514723" lon="3.411486"><time>2026-05-02T22:32:18Z</time></trkpt>
<trkpt lat="50.514565" lon="3.409898"><time>2026-05-02T22:42:18Z</time></trkpt>
<trkpt lat="50.514328" lon="3.408367"><time>2026-05-02T22:52:18Z</time></trkpt>
</trkseg>
</trk>
<trk>
<name>hbtbh25</name>
<cmt>q</cmt>
<desc>Bléharies Sentier n°25 </desc>
<link href="https://chemins.be/bleharies/sentier/25"/><trkseg>
<trkpt lat="50.516227" lon="3.409317"><time>2026-05-02T20:42:18Z</time></trkpt>
<trkpt lat="50.514744" lon="3.407783"><time>2026-05-02T20:52:18Z</time></trkpt>
<trkpt lat="50.514033" lon="3.407047"><time>2026-05-02T21:02:18Z</time></trkpt>
<trkpt lat="50.514066" lon="3.406991"><time>2026-05-02T21:12:18Z</time></trkpt>
<trkpt lat="50.513570" lon="3.406301"><time>2026-05-02T21:22:18Z</time></trkpt>
</trkseg>
</trk>
<trk>
<name>hbtbh26</name>
<cmt>q</cmt>
<desc>Bléharies Sentier n°26 </desc>
<link href="https://chemins.be/bleharies/sentier/26"/><trkseg>
<trkpt lat="50.512610" lon="3.409044"><time>2026-05-02T20:42:18Z</time></trkpt>
<trkpt lat="50.513004" lon="3.408979"><time>2026-05-02T20:52:18Z</time></trkpt>
<trkpt lat="50.513009" lon="3.409029"><time>2026-05-02T21:02:18Z</time></trkpt>
<trkpt lat="50.513428" lon="3.409110"><time>2026-05-02T21:12:18Z</time></trkpt>
<trkpt lat="50.514012" lon="3.408664"><time>2026-05-02T21:22:18Z</time></trkpt>
<trkpt lat="50.514348" lon="3.408336"><time>2026-05-02T21:32:18Z</time></trkpt>
<trkpt lat="50.514731" lon="3.407768"><time>2026-05-02T21:42:18Z</time></trkpt>
<trkpt lat="50.515018" lon="3.407343"><time>2026-05-02T21:52:18Z</time></trkpt>
<trkpt lat="50.516186" lon="3.407798"><time>2026-05-02T22:02:18Z</time></trkpt>
<trkpt lat="50.516224" lon="3.407695"><time>2026-05-02T22:12:18Z</time></trkpt>
<trkpt lat="50.517054" lon="3.407423"><time>2026-05-02T22:22:18Z</time></trkpt>
<trkpt lat="50.518113" lon="3.407077"><time>2026-05-02T22:32:18Z</time></trkpt>
</trkseg>
</trk>
<trk>
<name>hbtbh27</name>
<cmt>s</cmt>
<desc>Bléharies Sentier n°27 Rue Lucien Delfosse</desc>
<link href="https://chemins.be/bleharies/sentier/27"/><trkseg>
<trkpt lat="50.517745" lon="3.416675"><time>2026-05-02T20:42:18Z</time></trkpt>
<trkpt lat="50.517725" lon="3.416158"><time>2026-05-02T20:52:18Z</time></trkpt>
</trkseg></trk>
<trk>
<name>hbtbh27</name>
<cmt>d</cmt>
<desc>Bléharies Sentier n°27 Rue Lucien Delfosse</desc>
<link href="https://chemins.be/bleharies/sentier/27"/><trkseg>
<trkpt lat="50.517725" lon="3.416158"><time>2026-05-02T20:52:18Z</time></trkpt>
<trkpt lat="50.517789" lon="3.414632"><time>2026-05-02T21:02:18Z</time></trkpt>
<trkpt lat="50.517702" lon="3.413359"><time>2026-05-02T21:12:18Z</time></trkpt>
</trkseg></trk>
<trk>
<name>hbtbh27</name>
<cmt>v</cmt>
<desc>Bléharies Sentier n°27 Rue Lucien Delfosse</desc>
<link href="https://chemins.be/bleharies/sentier/27"/><trkseg>
<trkpt lat="50.517702" lon="3.413359"><time>2026-05-02T21:12:18Z</time></trkpt>
<trkpt lat="50.517485" lon="3.410400"><time>2026-05-02T21:22:18Z</time></trkpt>
</trkseg></trk>
<trk>
<name>hbtbh27</name>
<cmt>b</cmt>
<desc>Bléharies Sentier n°27 Rue Lucien Delfosse</desc>
<link href="https://chemins.be/bleharies/sentier/27"/><trkseg>
<trkpt lat="50.517485" lon="3.410400"><time>2026-05-02T21:22:18Z</time></trkpt>
<trkpt lat="50.517396" lon="3.408864"><time>2026-05-02T21:32:18Z</time></trkpt>
</trkseg></trk>
<trk>
<name>hbtbh27</name>
<cmt>d</cmt>
<desc>Bléharies Sentier n°27 Rue Lucien Delfosse</desc>
<link href="https://chemins.be/bleharies/sentier/27"/><trkseg>
<trkpt lat="50.517396" lon="3.408864"><time>2026-05-02T21:32:18Z</time></trkpt>
<trkpt lat="50.517188" lon="3.408925"><time>2026-05-02T21:42:18Z</time></trkpt>
<trkpt lat="50.517079" lon="3.407414"><time>2026-05-02T21:52:18Z</time></trkpt>
<trkpt lat="50.517117" lon="3.405242"><time>2026-05-02T22:02:18Z</time></trkpt>
<trkpt lat="50.517008" lon="3.401629"><time>2026-05-02T22:12:18Z</time></trkpt>
</trkseg>
</trk>
<trk>
<name>hbtbh28</name>
<cmt>q</cmt>
<desc>Bléharies Sentier n°28 </desc>
<link href="https://chemins.be/bleharies/sentier/28"/><trkseg>
<trkpt lat="50.517089" lon="3.407768"><time>2026-05-02T20:42:18Z</time></trkpt>
<trkpt lat="50.516898" lon="3.407420"><time>2026-05-02T20:52:18Z</time></trkpt>
<trkpt lat="50.516549" lon="3.406738"><time>2026-05-02T21:02:18Z</time></trkpt>
<trkpt lat="50.515995" lon="3.406017"><time>2026-05-02T21:12:18Z</time></trkpt>
<trkpt lat="50.514980" lon="3.405850"><time>2026-05-02T21:22:18Z</time></trkpt>
<trkpt lat="50.514410" lon="3.404901"><time>2026-05-02T21:32:18Z</time></trkpt>
<trkpt lat="50.513662" lon="3.404283"><time>2026-05-02T21:42:18Z</time></trkpt>
</trkseg>
</trk>
<trk>
<name>hbtbh29</name>
<cmt>r</cmt>
<desc>Bléharies Sentier n°29 Ruelle Bourlot</desc>
<link href="https://chemins.be/bleharies/sentier/29"/><trkseg>
<trkpt lat="50.513693" lon="3.405844"><time>2026-05-02T20:42:18Z</time></trkpt>
<trkpt lat="50.514086" lon="3.405469"><time>2026-05-02T20:52:18Z</time></trkpt>
<trkpt lat="50.514397" lon="3.404932"><time>2026-05-02T21:02:18Z</time></trkpt>
</trkseg>
</trk>
<trk>
<name>hbtbh30</name>
<cmt>q</cmt>
<desc>Bléharies Sentier n°30 </desc>
<link href="https://chemins.be/bleharies/sentier/30"/><trkseg>
<trkpt lat="50.515990" lon="3.405966"><time>2026-05-02T20:42:18Z</time></trkpt>
<trkpt lat="50.515960" lon="3.404940"><time>2026-05-02T20:52:18Z</time></trkpt>
<trkpt lat="50.515245" lon="3.403876"><time>2026-05-02T21:02:18Z</time></trkpt>
</trkseg>
</trk>
<trk>
<name>hbtbh31</name>
<cmt>d</cmt>
<desc>Bléharies Sentier n°31 </desc>
<link href="https://chemins.be/bleharies/sentier/31"/><trkseg>
<trkpt lat="50.515971" lon="3.403847"><time>2026-05-02T20:42:18Z</time></trkpt>
<trkpt lat="50.516964" lon="3.401710"><time>2026-05-02T20:52:18Z</time></trkpt>
</trkseg>
</trk>
<trk>
<name>hbtbh32</name>
<cmt>q</cmt>
<desc>Bléharies Sentier n°32 </desc>
<link href="https://chemins.be/bleharies/sentier/32"/><trkseg>
<trkpt lat="50.510010" lon="3.420301"><time>2026-05-02T20:42:18Z</time></trkpt>
<trkpt lat="50.511217" lon="3.421395"><time>2026-05-02T20:52:18Z</time></trkpt>
<trkpt lat="50.511907" lon="3.422142"><time>2026-05-02T21:02:18Z</time></trkpt>
</trkseg>
</trk>
<trk>
<name>hbtbh33</name>
<cmt>v</cmt>
<desc>Bléharies Sentier n°33 </desc>
<link href="https://chemins.be/bleharies/sentier/33"/><trkseg>
<trkpt lat="50.513030" lon="3.415035"><time>2026-05-02T20:42:18Z</time></trkpt>
<trkpt lat="50.512796" lon="3.415311"><time>2026-05-02T20:52:18Z</time></trkpt>
<trkpt lat="50.512781" lon="3.415528"><time>2026-05-02T21:02:18Z</time></trkpt>
<trkpt lat="50.512439" lon="3.415981"><time>2026-05-02T21:12:18Z</time></trkpt>
<trkpt lat="50.512225" lon="3.416423"><time>2026-05-02T21:22:18Z</time></trkpt>
<trkpt lat="50.510539" lon="3.417814"><time>2026-05-02T21:32:18Z</time></trkpt>
<trkpt lat="50.510239" lon="3.418061"><time>2026-05-02T21:42:18Z</time></trkpt>
<trkpt lat="50.509237" lon="3.418789"><time>2026-05-02T21:52:18Z</time></trkpt>
<trkpt lat="50.509314" lon="3.419029"><time>2026-05-02T22:02:18Z</time></trkpt>
</trkseg></trk>
<trk>
<name>hbtbh33</name>
<cmt>q</cmt>
<desc>Bléharies Sentier n°33 </desc>
<link href="https://chemins.be/bleharies/sentier/33"/><trkseg>
<trkpt lat="50.509314" lon="3.419029"><time>2026-05-02T22:02:18Z</time></trkpt>
<trkpt lat="50.506530" lon="3.421982"><time>2026-05-02T22:12:18Z</time></trkpt>
<trkpt lat="50.505012" lon="3.422600"><time>2026-05-02T22:22:18Z</time></trkpt>
<trkpt lat="50.504226" lon="3.423767"><time>2026-05-02T22:32:18Z</time></trkpt>
<trkpt lat="50.503811" lon="3.423853"><time>2026-05-02T22:42:18Z</time></trkpt>
</trkseg>
</trk>
<trk>
<name>hbtbh34</name>
<cmt>q</cmt>
<desc>Bléharies Sentier n°34 </desc>
<link href="https://chemins.be/bleharies/sentier/34"/><trkseg>
<trkpt lat="50.512414" lon="3.414628"><time>2026-05-02T20:42:18Z</time></trkpt>
<trkpt lat="50.511857" lon="3.415319"><time>2026-05-02T20:52:18Z</time></trkpt>
<trkpt lat="50.510485" lon="3.416152"><time>2026-05-02T21:02:18Z</time></trkpt>
<trkpt lat="50.510004" lon="3.418207"><time>2026-05-02T21:12:18Z</time></trkpt>
</trkseg>
</trk>
<trk>
<name>hbtbh36</name>
<cmt>q</cmt>
<desc>Bléharies Sentier n°36 </desc>
<link href="https://chemins.be/bleharies/sentier/36"/><trkseg>
<trkpt lat="50.516228" lon="3.409318"><time>2026-05-02T20:42:18Z</time></trkpt>
<trkpt lat="50.516321" lon="3.407666"><time>2026-05-02T20:52:18Z</time></trkpt>
</trkseg>
</trk>
<trk>
<name>hbtbh37</name>
<cmt>q</cmt>
<desc>Bléharies Sentier n°37 </desc>
<link href="https://chemins.be/bleharies/sentier/37"/><trkseg>
<trkpt lat="50.518388" lon="3.407575"><time>2026-05-02T20:42:18Z</time></trkpt>
<trkpt lat="50.517930" lon="3.407841"><time>2026-05-02T20:52:18Z</time></trkpt>
<trkpt lat="50.517668" lon="3.408214"><time>2026-05-02T21:02:18Z</time></trkpt>
<trkpt lat="50.517144" lon="3.408343"><time>2026-05-02T21:12:18Z</time></trkpt>
</trkseg>
</trk>
<trk>
<name>hbtbh38</name>
<cmt>d</cmt>
<desc>Bléharies Sentier n°38 </desc>
<link href="https://chemins.be/bleharies/sentier/38"/><trkseg>
<trkpt lat="50.515895" lon="3.413722"><time>2026-05-02T20:42:18Z</time></trkpt>
<trkpt lat="50.517478" lon="3.410512"><time>2026-05-02T20:52:18Z</time></trkpt>
</trkseg>
</trk>
<trk>
<name>hbtbh39</name>
<cmt>v</cmt>
<desc>Bléharies Sentier n°39 </desc>
<link href="https://chemins.be/bleharies/sentier/39"/><trkseg>
<trkpt lat="50.514799" lon="3.419228"><time>2026-05-02T20:42:18Z</time></trkpt>
<trkpt lat="50.515617" lon="3.418481"><time>2026-05-02T20:52:18Z</time></trkpt>
<trkpt lat="50.516209" lon="3.417941"><time>2026-05-02T21:02:18Z</time></trkpt>
<trkpt lat="50.516883" lon="3.417137"><time>2026-05-02T21:12:18Z</time></trkpt>
<trkpt lat="50.517479" lon="3.416356"><time>2026-05-02T21:22:18Z</time></trkpt>
</trkseg>
</trk>
<trk>
<name>hbtbh4</name>
<cmt>s</cmt>
<desc>Bléharies Chemin n°4 </desc>
<link href="https://chemins.be/bleharies/chemin/4"/><trkseg>
<trkpt lat="50.519019" lon="3.420016"><time>2026-05-02T20:42:18Z</time></trkpt>
<trkpt lat="50.519529" lon="3.419724"><time>2026-05-02T20:52:18Z</time></trkpt>
<trkpt lat="50.521051" lon="3.419308"><time>2026-05-02T21:02:18Z</time></trkpt>
</trkseg>
</trk>
<trk>
<name>hbtbh40</name>
<cmt>r</cmt>
<desc>Bléharies Sentier n°40 Rue des Zelvas</desc>
<link href="https://chemins.be/bleharies/sentier/40"/><trkseg>
<trkpt lat="50.519040" lon="3.420026"><time>2026-05-02T20:42:18Z</time></trkpt>
<trkpt lat="50.518818" lon="3.419269"><time>2026-05-02T20:52:18Z</time></trkpt>
<trkpt lat="50.518811" lon="3.418975"><time>2026-05-02T21:02:18Z</time></trkpt>
<trkpt lat="50.518584" lon="3.418773"><time>2026-05-02T21:12:18Z</time></trkpt>
<trkpt lat="50.518376" lon="3.418168"><time>2026-05-02T21:22:18Z</time></trkpt>
</trkseg>
</trk>
<trk>
<name>hbtbh41</name>
<cmt>q</cmt>
<desc>Bléharies Sentier n°41 </desc>
<link href="https://chemins.be/bleharies/sentier/41"/><trkseg>
<trkpt lat="50.513288" lon="3.415689"><time>2026-05-02T20:42:18Z</time></trkpt>
<trkpt lat="50.513275" lon="3.415767"><time>2026-05-02T20:52:18Z</time></trkpt>
<trkpt lat="50.513570" lon="3.416386"><time>2026-05-02T21:02:18Z</time></trkpt>
<trkpt lat="50.513818" lon="3.417673"><time>2026-05-02T21:12:18Z</time></trkpt>
<trkpt lat="50.513923" lon="3.417748"><time>2026-05-02T21:22:18Z</time></trkpt>
</trkseg>
</trk>
<trk>
<name>hbtbh42</name>
<cmt>q</cmt>
<desc>Bléharies Sentier n°42 </desc>
<link href="https://chemins.be/bleharies/sentier/42"/><trkseg>
<trkpt lat="50.511256" lon="3.412679"><time>2026-05-02T20:42:18Z</time></trkpt>
<trkpt lat="50.509618" lon="3.413906"><time>2026-05-02T20:52:18Z</time></trkpt>
<trkpt lat="50.509149" lon="3.413906"><time>2026-05-02T21:02:18Z</time></trkpt>
<trkpt lat="50.508625" lon="3.414327"><time>2026-05-02T21:12:18Z</time></trkpt>
<trkpt lat="50.508237" lon="3.414275"><time>2026-05-02T21:22:18Z</time></trkpt>
</trkseg>
</trk>
<trk>
<name>hbtbh43</name>
<cmt>q</cmt>
<desc>Bléharies Sentier n°43 </desc>
<link href="https://chemins.be/bleharies/sentier/43"/><trkseg>
<trkpt lat="50.507508" lon="3.414347"><time>2026-05-02T20:42:18Z</time></trkpt>
<trkpt lat="50.507544" lon="3.414742"><time>2026-05-02T20:52:18Z</time></trkpt>
<trkpt lat="50.507353" lon="3.415225"><time>2026-05-02T21:02:18Z</time></trkpt>
<trkpt lat="50.507117" lon="3.415426"><time>2026-05-02T21:12:18Z</time></trkpt>
<trkpt lat="50.506625" lon="3.415812"><time>2026-05-02T21:22:18Z</time></trkpt>
<trkpt lat="50.506718" lon="3.416233"><time>2026-05-02T21:32:18Z</time></trkpt>
<trkpt lat="50.506347" lon="3.416473"><time>2026-05-02T21:42:18Z</time></trkpt>
<trkpt lat="50.506282" lon="3.416199"><time>2026-05-02T21:52:18Z</time></trkpt>
<trkpt lat="50.505392" lon="3.416662"><time>2026-05-02T22:02:18Z</time></trkpt>
<trkpt lat="50.505070" lon="3.416424"><time>2026-05-02T22:12:18Z</time></trkpt>
<trkpt lat="50.504496" lon="3.417254"><time>2026-05-02T22:22:18Z</time></trkpt>
<trkpt lat="50.504101" lon="3.417518"><time>2026-05-02T22:32:18Z</time></trkpt>
<trkpt lat="50.503634" lon="3.418250"><time>2026-05-02T22:42:18Z</time></trkpt>
<trkpt lat="50.503399" lon="3.419306"><time>2026-05-02T22:52:18Z</time></trkpt>
<trkpt lat="50.502690" lon="3.419220"><time>2026-05-02T23:02:18Z</time></trkpt>
</trkseg>
</trk>
<trk>
<name>hbtbh44</name>
<cmt>q</cmt>
<desc>Bléharies Sentier n°44 </desc>
<link href="https://chemins.be/bleharies/sentier/44"/><trkseg>
<trkpt lat="50.507553" lon="3.417087"><time>2026-05-02T20:42:18Z</time></trkpt>
<trkpt lat="50.507109" lon="3.417508"><time>2026-05-02T20:52:18Z</time></trkpt>
<trkpt lat="50.506898" lon="3.416825"><time>2026-05-02T21:02:18Z</time></trkpt>
<trkpt lat="50.506579" lon="3.417010"><time>2026-05-02T21:12:18Z</time></trkpt>
<trkpt lat="50.506363" lon="3.416443"><time>2026-05-02T21:22:18Z</time></trkpt>
</trkseg>
</trk>
<trk>
<name>hbtbh45</name>
<cmt>v</cmt>
<desc>Bléharies Sentier n°45 </desc>
<link href="https://chemins.be/bleharies/sentier/45"/><trkseg>
<trkpt lat="50.507555" lon="3.417107"><time>2026-05-02T20:42:18Z</time></trkpt>
<trkpt lat="50.507424" lon="3.418275"><time>2026-05-02T20:52:18Z</time></trkpt>
<trkpt lat="50.506125" lon="3.420189"><time>2026-05-02T21:02:18Z</time></trkpt>
<trkpt lat="50.504909" lon="3.420378"><time>2026-05-02T21:12:18Z</time></trkpt>
<trkpt lat="50.504426" lon="3.420709"><time>2026-05-02T21:22:18Z</time></trkpt>
<trkpt lat="50.503706" lon="3.419318"><time>2026-05-02T21:32:18Z</time></trkpt>
<trkpt lat="50.503430" lon="3.419202"><time>2026-05-02T21:42:18Z</time></trkpt>
</trkseg>
</trk>
<trk>
<name>hbtbh46</name>
<cmt>v</cmt>
<desc>Bléharies Sentier n°46 </desc>
<link href="https://chemins.be/bleharies/sentier/46"/><trkseg>
<trkpt lat="50.506866" lon="3.409384"><time>2026-05-02T20:42:18Z</time></trkpt>
<trkpt lat="50.506596" lon="3.408561"><time>2026-05-02T20:52:18Z</time></trkpt>
<trkpt lat="50.506329" lon="3.407745"><time>2026-05-02T21:02:18Z</time></trkpt>
<trkpt lat="50.505458" lon="3.405004"><time>2026-05-02T21:12:18Z</time></trkpt>
</trkseg></trk>
<trk>
<name>hbtbh46</name>
<cmt>q</cmt>
<desc>Bléharies Sentier n°46 </desc>
<link href="https://chemins.be/bleharies/sentier/46"/><trkseg>
<trkpt lat="50.505458" lon="3.405004"><time>2026-05-02T21:12:18Z</time></trkpt>
<trkpt lat="50.505053" lon="3.403264"><time>2026-05-02T21:22:18Z</time></trkpt>
</trkseg>
</trk>
<trk>
<name>hbtbh47</name>
<cmt>q</cmt>
<desc>Bléharies Sentier n°47 </desc>
<link href="https://chemins.be/bleharies/sentier/47"/><trkseg>
<trkpt lat="50.505927" lon="3.410327"><time>2026-05-02T20:42:18Z</time></trkpt>
<trkpt lat="50.505641" lon="3.410134"><time>2026-05-02T20:52:18Z</time></trkpt>
<trkpt lat="50.505049" lon="3.410439"><time>2026-05-02T21:02:18Z</time></trkpt>
<trkpt lat="50.504664" lon="3.410143"><time>2026-05-02T21:12:18Z</time></trkpt>
<trkpt lat="50.504145" lon="3.410706"><time>2026-05-02T21:22:18Z</time></trkpt>
<trkpt lat="50.503880" lon="3.410993"><time>2026-05-02T21:32:18Z</time></trkpt>
<trkpt lat="50.503722" lon="3.410980"><time>2026-05-02T21:42:18Z</time></trkpt>
<trkpt lat="50.503091" lon="3.411319"><time>2026-05-02T21:52:18Z</time></trkpt>
<trkpt lat="50.502024" lon="3.412263"><time>2026-05-02T22:02:18Z</time></trkpt>
</trkseg>
</trk>
<trk>
<name>hbtbh48</name>
<cmt>q</cmt>
<desc>Bléharies Sentier n°48 </desc>
<link href="https://chemins.be/bleharies/sentier/48"/><trkseg>
<trkpt lat="50.504445" lon="3.413100"><time>2026-05-02T20:42:18Z</time></trkpt>
<trkpt lat="50.504238" lon="3.411598"><time>2026-05-02T20:52:18Z</time></trkpt>
<trkpt lat="50.504287" lon="3.411559"><time>2026-05-02T21:02:18Z</time></trkpt>
<trkpt lat="50.504149" lon="3.410731"><time>2026-05-02T21:12:18Z</time></trkpt>
<trkpt lat="50.504080" lon="3.410310"><time>2026-05-02T21:22:18Z</time></trkpt>
<trkpt lat="50.503848" lon="3.410078"><time>2026-05-02T21:32:18Z</time></trkpt>
<trkpt lat="50.503592" lon="3.409426"><time>2026-05-02T21:42:18Z</time></trkpt>
</trkseg>
</trk>
<trk>
<name>hbtbh50</name>
<cmt>v</cmt>
<desc>Bléharies Sentier n°50 </desc>
<link href="https://chemins.be/bleharies/sentier/50"/><trkseg>
<trkpt lat="50.503899" lon="3.400329"><time>2026-05-02T20:42:18Z</time></trkpt>
<trkpt lat="50.502774" lon="3.401204"><time>2026-05-02T20:52:18Z</time></trkpt>
</trkseg></trk>
<trk>
<name>hbtbh50</name>
<cmt>q</cmt>
<desc>Bléharies Sentier n°50 </desc>
<link href="https://chemins.be/bleharies/sentier/50"/><trkseg>
<trkpt lat="50.502774" lon="3.401204"><time>2026-05-02T20:52:18Z</time></trkpt>
<trkpt lat="50.502709" lon="3.402268"><time>2026-05-02T21:02:18Z</time></trkpt>
<trkpt lat="50.501562" lon="3.402989"><time>2026-05-02T21:12:18Z</time></trkpt>
<trkpt lat="50.501999" lon="3.404105"><time>2026-05-02T21:22:18Z</time></trkpt>
<trkpt lat="50.501617" lon="3.406457"><time>2026-05-02T21:32:18Z</time></trkpt>
<trkpt lat="50.500843" lon="3.407728"><time>2026-05-02T21:42:18Z</time></trkpt>
<trkpt lat="50.500769" lon="3.407815"><time>2026-05-02T21:52:18Z</time></trkpt>
<trkpt lat="50.500968" lon="3.408254"><time>2026-05-02T22:02:18Z</time></trkpt>
<trkpt lat="50.500009" lon="3.409023"><time>2026-05-02T22:12:18Z</time></trkpt>
</trkseg>
</trk>
<trk>
<name>hbtbh51</name>
<cmt>q</cmt>
<desc>Bléharies Sentier n°51 </desc>
<link href="https://chemins.be/bleharies/sentier/51"/><trkseg>
<trkpt lat="50.519982" lon="3.420299"><time>2026-05-02T20:42:18Z</time></trkpt>
<trkpt lat="50.520429" lon="3.419733"><time>2026-05-02T20:52:18Z</time></trkpt>
<trkpt lat="50.520427" lon="3.419484"><time>2026-05-02T21:02:18Z</time></trkpt>
</trkseg>
</trk>
<trk>
<name>hbtbh52</name>
<cmt>q</cmt>
<desc>Bléharies Sentier n°52 </desc>
<link href="https://chemins.be/bleharies/sentier/52"/><trkseg>
<trkpt lat="50.513891" lon="3.423538"><time>2026-05-02T20:42:18Z</time></trkpt>
<trkpt lat="50.512886" lon="3.424547"><time>2026-05-02T20:52:18Z</time></trkpt>
</trkseg>
</trk>
<trk>
<name>hbtbh53</name>
<cmt>r</cmt>
<desc>Bléharies Sentier n°53 Rue d'En bas</desc>
<link href="https://chemins.be/bleharies/sentier/53"/><trkseg>
<trkpt lat="50.516719" lon="3.421082"><time>2026-05-02T20:42:18Z</time></trkpt>
<trkpt lat="50.516626" lon="3.421489"><time>2026-05-02T20:52:18Z</time></trkpt>
<trkpt lat="50.516275" lon="3.421665"><time>2026-05-02T21:02:18Z</time></trkpt>
<trkpt lat="50.516425" lon="3.422147"><time>2026-05-02T21:12:18Z</time></trkpt>
</trkseg>
</trk>
<trk>
<name>hbtbh55</name>
<cmt>q</cmt>
<desc>Bléharies Sentier n°55 </desc>
<link href="https://chemins.be/bleharies/sentier/55"/><trkseg>
<trkpt lat="50.519397" lon="3.420275"><time>2026-05-02T20:42:18Z</time></trkpt>
<trkpt lat="50.519448" lon="3.420564"><time>2026-05-02T20:52:18Z</time></trkpt>
<trkpt lat="50.519564" lon="3.420800"><time>2026-05-02T21:02:18Z</time></trkpt>
</trkseg>
</trk>
<trk>
<name>hbtbh56</name>
<cmt>q</cmt>
<desc>Bléharies Sentier n°56 </desc>
<link href="https://chemins.be/bleharies/sentier/56"/><trkseg>
<trkpt lat="50.501514" lon="3.412812"><time>2026-05-02T20:42:18Z</time></trkpt>
<trkpt lat="50.502064" lon="3.414436"><time>2026-05-02T20:52:18Z</time></trkpt>
<trkpt lat="50.502742" lon="3.415366"><time>2026-05-02T21:02:18Z</time></trkpt>
<trkpt lat="50.503020" lon="3.416346"><time>2026-05-02T21:12:18Z</time></trkpt>
<trkpt lat="50.504125" lon="3.417154"><time>2026-05-02T21:22:18Z</time></trkpt>
<trkpt lat="50.504057" lon="3.417483"><time>2026-05-02T21:32:18Z</time></trkpt>
</trkseg>
</trk>
<trk>
<name>hbtbh57</name>
<cmt>v</cmt>
<desc>Bléharies Sentier n°57 </desc>
<link href="https://chemins.be/bleharies/sentier/57"/><trkseg>
<trkpt lat="50.504440" lon="3.420730"><time>2026-05-02T20:42:18Z</time></trkpt>
<trkpt lat="50.504268" lon="3.421309"><time>2026-05-02T20:52:18Z</time></trkpt>
<trkpt lat="50.504340" lon="3.421804"><time>2026-05-02T21:02:18Z</time></trkpt>
</trkseg>
</trk>
<trk>
<name>hbtbhi1</name>
<cmt>v</cmt>
<desc>Bléharies Chemin n°i1 </desc>
<link href="https://chemins.be/bleharies/chemin/i1"/><trkseg>
<trkpt lat="50.518705" lon="3.418815"><time>2026-05-02T20:42:18Z</time></trkpt>
<trkpt lat="50.519218" lon="3.418979"><time>2026-05-02T20:52:18Z</time></trkpt>
<trkpt lat="50.519823" lon="3.419018"><time>2026-05-02T21:02:18Z</time></trkpt>
<trkpt lat="50.521032" lon="3.419211"><time>2026-05-02T21:12:18Z</time></trkpt>
</trkseg>
</trk>
<trk>
<name>hbtbhL88</name>
<cmt>v</cmt>
<desc>Bléharies Chemin n°L88 </desc>
<link href="https://chemins.be/bleharies/chemin/L88"/><trkseg>
<trkpt lat="50.506181" lon="3.430661"><time>2026-05-02T20:42:18Z</time></trkpt>
<trkpt lat="50.510165" lon="3.423228"><time>2026-05-02T20:52:18Z</time></trkpt>
<trkpt lat="50.511190" lon="3.421413"><time>2026-05-02T21:02:18Z</time></trkpt>
<trkpt lat="50.512909" lon="3.420057"><time>2026-05-02T21:12:18Z</time></trkpt>
<trkpt lat="50.514776" lon="3.419610"><time>2026-05-02T21:22:18Z</time></trkpt>
<trkpt lat="50.515103" lon="3.419284"><time>2026-05-02T21:32:18Z</time></trkpt>
<trkpt lat="50.518787" lon="3.419181"><time>2026-05-02T21:42:18Z</time></trkpt>
<trkpt lat="50.519535" lon="3.419061"><time>2026-05-02T21:52:18Z</time></trkpt>
<trkpt lat="50.520970" lon="3.419301"><time>2026-05-02T22:02:18Z</time></trkpt>
</trkseg>
</trk>
</gpx>